Home > Weather > Salinas > Past weeks

Flag for U.S.A. Weather for the Past 2 Weeks in Salinas, California, U.S.A.

Now
59 °F

Clear.


Feels Like: 58 °F
Forecast: 49 / 67 °F
Wind: 6 mph from West

Location: Salinas Municipal Airport

Current Time: Feb 12, 2016 at 6:55:03 PM

Latest Report: Feb 12, 2016 at 5:53 PM


Visibility: 10 mi

Pressure: 30.18 "Hg

Humidity: 81%

Dew point: 53 °F

Location of SalinasLocation

Historic Weather in Salinas — Graph

°F

Salinas Temperature Yesterday

Maximum temperature yesterday: 74 °F (at 12:53 PM)
Minimum temperature yesterday: 52 °F (at 10:53 PM)
Average temperature yesterday: 59 °F

High & Low Weather Summary for the Past Weeks

 TemperatureHumidityPressure
High81 °F (Feb 8, 2:53 PM)97% (Feb 11, 10:53 PM)30.47 "Hg (Feb 11, 10:53 PM)
Low37 °F (Feb 2, 1:53 AM)22% (Feb 9, 3:53 PM)29.78 "Hg (Jan 31, 2:53 PM)
Average54 °F68%30.22 "Hg
* Reported Jan 28 4:53 PM — Feb 12 4:53 PM, Salinas, Weather by CustomWeather, © 2016

Note: Actual official high and low records may vary slightly from our data, if they occured in-between our weather recording intervals... More about our weather records

Advertising

Salinas Weather History for the Previous 24 Hours

 ConditionsComfort  
Time TempWeatherWind HumidityBarometerVisibility
4:53 PM
Fri, Feb 12
63 °FSunny.9 mph70%30.17 "Hg10 mi
3:53 PM68 °FSunny.17 mph51%30.16 "Hg10 mi
2:53 PM70 °FSunny.13 mph49%30.15 "Hg10 mi
12:53 PM69 °FSunny.7 mph51%30.18 "Hg10 mi
11:53 AM65 °FSunny.No wind54%30.21 "Hg10 mi
10:53 AM61 °FSunny.5 mph65%30.23 "Hg10 mi
9:53 AM56 °FSunny.8 mph75%30.24 "Hg10 mi
8:53 AM51 °FSunny.13 mph86%30.22 "Hg10 mi
7:53 AM47 °FFog.9 mph93%30.23 "Hg6 mi
6:53 AM46 °FFog.5 mph93%30.22 "Hg0 mi
5:53 AM48 °FFog.5 mph96%30.21 "Hg1 mi
4:53 AM48 °FFog.8 mph96%30.20 "Hg0 mi
3:53 AM49 °FFog.6 mph97%30.20 "Hg0 mi
2:53 AM50 °FFog.5 mph96%30.22 "Hg0 mi
1:53 AM51 °FFog.No wind92%30.22 "Hg1 mi
12:53 AM51 °FFog.No wind92%30.22 "Hg1 mi
11:53 PM
Thu, Feb 11
52 °FFog.5 mph93%30.22 "Hg0 mi
10:53 PM52 °FFog.6 mph97%30.21 "Hg1 mi
9:53 PM53 °FFog.7 mph93%30.21 "Hg1 mi
8:53 PM53 °FFog.8 mph93%30.19 "Hg1 mi
7:53 PM56 °FClear.6 mph84%30.18 "Hg7 mi
6:53 PM57 °FClear.7 mph83%30.18 "Hg9 mi
Weather by CustomWeather, © 2016

See weather overviewHow to use our weather pages